Location: Hopewell Observatory
(38.8698°N, 77.6988°W)
Time: 10:51:12
(UTC-04:00)

Daily predictions for brighter satellites

Satellite Brightness Start Highest point End
(mag) Time Altitude Azimuth Time Altitude Azimuth Time Altitude Azimuth
Nadezhda 4 Rocket 4.2 20:15:16 10° N 20:21:34 83° W 20:27:53 10° S
SEDSat Delta rocket 4.2 20:26:10 10° WSW 20:30:40 35° S 20:35:45 10° ESE
Cosmos 1634 Rocket 4.0 20:26:32 10° S 20:32:47 71° E 20:39:05 10° NNE
Helios 1A 3.8 20:30:21 10° SE 20:34:09 33° ENE 20:37:58 10° N
Cosmos 1092 Rocket 4.1 20:27:59 10° N 20:34:22 88° E 20:40:42 10° S
Cosmos 1869 Rocket 4.1 20:33:08 10° NNW 20:37:35 64° W 20:41:58 10° S
CZ-3B DEB 3.8 20:39:46 10° W 20:41:05 11° WSW 20:42:12 10° SW
ERBS 3.3 20:39:22 10° NW 20:42:41 45° SW 20:46:01 10° SSE
USA 186 1.6 20:40:49 10° SSE 20:43:30 55° ENE 20:46:24 10° N
ERS-1 Rocket 4.5 20:42:04 10° ESE 20:45:33 20° ENE 20:49:06 10° NNE
CZ-4B DEB 3.9 20:44:25 12° SE 20:46:36 25° ENE 20:49:10 10° NNE
Resurs 1-3 3.7 20:42:42 10° SSE 20:47:05 83° WSW 20:51:30 10° NNW
YAOGAN 6 4.4 20:47:03 12° ESE 20:48:50 16° ENE 20:51:07 10° NNE
Cosmos 1862 3.8 20:45:40 10° N 20:49:30 41° E 20:53:19 10° SSE
Cosmos 1455 4.2 20:47:32 10° SW 20:50:57 31° WNW 20:54:22 10° NNW
Cosmos 1655 Rocket 4.2 20:46:11 10° N 20:52:29 58° E 20:58:42 10° SSE
Meteor 2-10 Rocket 4.4 20:51:31 10° SSE 20:56:46 36° E 21:02:01 10° NNE
USA 229 DEB 4.1 20:52:21 10° S 20:58:30 38° ESE 21:04:46 10° NE
USA 229 4.1 20:52:29 10° S 20:58:38 38° ESE 21:04:52 10° NE
Cosmos 2242 Rocket 3.8 20:59:57 10° SSW 21:04:27 75° W 21:08:56 10° N
Cosmos 1939 Rocket 3.1 21:04:38 16° SSE 21:07:43 51° ENE 21:11:37 10° N
Cosmos 1992 Rocket 4.1 21:04:15 10° SSW 21:09:29 83° WNW 21:14:46 10° NNE
Cosmos 2279 Rocket 3.9 21:04:10 10° S 21:10:24 82° E 21:16:39 10° N
Intercosmos 25 Rocket 3.5 21:09:08 10° SSW 21:12:18 65° W 21:16:20 10° N
SPOT 5 4.5 21:11:25 15° E 21:12:59 18° ENE 21:16:03 10° NNE
Cosmos 2263 Rocket 2.1 21:10:58 10° NNW 21:16:34 82° ENE 21:20:53 17° SSE
Atlas Centaur 2 3.2 21:11:35 10° WSW 21:17:46 41° S 21:22:34 20° ESE
Lacrosse 4 Rocket 2.6 21:17:33 10° NW 21:21:40 41° WSW 21:25:39 11° S
Helios 1B rocket 2.7 21:17:36 10° N 21:21:42 70° WNW 21:25:46 10° SSW
Cosmos 2322 Rocket 3.5 21:20:03 10° SW 21:25:21 43° WNW 21:30:43 10° N
Cosmos 1428 Rocket 4.4 21:19:23 10° N 21:25:32 89° E 21:31:40 10° S
Resurs 01 Rocket 3.7 21:21:57 10° SSW 21:25:41 26° W 21:29:28 10° NW
ORS 1 (USA 231) 4.4 21:24:01 10° W 21:27:06 75° SSW 21:27:47 49° ESE
SAR-Lupe-4 4.4 21:27:54 13° S 21:30:52 49° W 21:34:22 10° NNW
COSMOS 2428 3.2 21:29:08 21° SSE 21:32:13 35° ESE 21:37:21 10° NE
Cosmos 2360 Rocket 2.1 21:27:55 10° SSW 21:33:34 85° ESE 21:39:16 10° NNE
Cosmos 1825 4.0 21:31:28 10° NNW 21:34:51 31° W 21:38:14 10° SSW
OAO 3 Rocket 3.7 21:34:18 10° W 21:38:57 45° SSW 21:40:29 34° SSE
Meteor 1-14 Rocket 4.4 21:36:14 10° N 21:41:51 57° ENE 21:44:27 31° SE
Cosmos 1908 Rocket 3.4 21:39:05 10° N 21:43:26 77° E 21:45:05 37° SSE
Sich 1 Rocket 3.5 21:40:32 10° N 21:45:02 81° E 21:46:55 35° SSE
NOAA 11 4.4 21:43:48 33° SE 21:45:58 52° ENE 21:51:17 10° N
Cosmos 968 Rocket 3.4 21:40:56 10° NNW 21:46:10 81° ENE 21:48:27 35° SSE
Cosmos 2322 3.7 21:43:06 10° SSW 21:48:50 85° WNW 21:54:33 10° NNE
ATLAS 5 CENTAUR R/B 2.4 21:44:17 10° NW 21:50:24 85° WSW 21:53:35 33° SSE
SL-16 R/B 4.4 21:50:52 10° WSW 21:55:34 26° WNW 22:00:18 10° N
ARGOS 3.5 21:56:21 40° ESE 21:57:40 49° ENE 22:02:50 10° N
Cosmos 1782 Rocket 3.5 21:53:33 10° N 21:57:55 63° E 21:58:28 57° ESE
Meteor 1-20 Rocket 4.5 21:53:22 10° N 21:58:49 51° ENE 22:00:07 42° ESE
Envisat 4.2 21:54:21 11° SSW 21:58:54 38° W 22:03:38 10° NNW
Cosmos 1867 3.5 21:53:56 10° NNW 21:59:25 82° WSW 22:01:17 43° SSE
USA 234 3.2 21:56:41 35° SE 21:59:46 90° WSW 22:06:21 10° NW
H-2A R/B 2.9 21:59:46 30° ENE 22:00:05 30° ENE 22:04:22 10° N
USA 245 4.3 21:59:27 42° ESE 22:00:53 54° ENE 22:05:43 10° N
Terra 3.7 22:01:51 17° ENE 22:01:51 17° ENE 22:04:39 10° NNE
Okean 1-7 2.9 22:08:38 65° S 22:09:17 85° E 22:13:42 10° N
Okean 2 Rocket 3.1 22:05:31 10° N 22:10:00 61° E 22:10:03 61° E
Cosmos 2333 4.1 22:08:24 34° S 22:10:57 69° ESE 22:16:41 10° NNE
Cosmos 2237 Rocket 3.9 22:14:04 18° ENE 22:14:04 18° ENE 22:15:57 10° NE
Cosmos 2333 Rocket 3.2 22:13:24 30° ENE 22:13:24 30° ENE 22:17:04 10° NE
SEDSat Delta rocket 4.3 22:11:37 10° WSW 22:16:15 36° SSW 22:16:15 36° SSW
Cosmos 2278 Rocket 3.6 22:12:32 10° N 22:17:03 24° NE 22:17:43 23° ENE
Cosmos 1844 Rocket 2.8 22:13:05 10° NNW 22:18:35 56° ENE 22:19:16 52° E
YAOGAN 6 4.2 22:21:29 26° WSW 22:22:09 28° W 22:25:20 10° NW
ERS-1 Rocket 3.7 22:22:03 32° SSW 22:23:57 47° W 22:28:48 10° NNW
Nimbus 7 Rocket 4.3 22:20:01 10° NNE 22:25:59 76° ESE 22:27:31 52° S
MetOp-A 4.3 22:25:28 47° SSW 22:26:55 66° WSW 22:32:15 10° NNW
SeaSat 1 2.5 22:27:56 64° ENE 22:28:05 64° ENE 22:32:58 10° NNW
Milstar 3 4.1 22:26:23 10° WSW 22:31:42 22° SSW 22:31:42 22° SSW
Cosmos 1417 Rocket 4.5 22:33:33 60° ESE 22:34:02 62° E 22:40:18 10° NNE
Cosmos 1782 3.6 22:36:14 47° N 22:36:14 47° N 22:39:12 10° N
Cosmos 2219 Rocket 2.1 22:37:35 72° E 22:37:35 72° E 22:42:55 10° NNE
NOSS 3-1 (C) 3.2 22:42:31 64° SSW 22:43:30 85° ESE 22:49:53 10° NE
Cosmos 2151 Rocket 4.3 22:39:42 10° N 22:42:57 46° NNE 22:42:57 46° NNE
SPOT 1/Viking Rocket 3.5 22:47:40 78° WSW 22:47:41 78° WSW 22:52:55 10° NNW
SPOT 5 3.5 22:50:39 47° WSW 22:50:43 47° W 22:55:13 10° NNW
Meteor 1-27 Rocket 3.9 22:53:16 58° NE 22:53:16 58° NE 22:57:59 10° NNE
NOSS 3-1 (A) 3.4 23:00:29 66° NE 23:00:29 66° NE 23:06:01 10° NE
NOSS 0 Rocket 3.9 23:01:38 69° NE 23:01:38 69° NE 23:07:06 10° NNE
ASTEX 1 4.0 23:02:21 53° N 23:02:21 53° N 23:06:12 10° N
Atlas Centaur 2 3.6 22:59:58 10° WSW 23:05:12 38° SW 23:05:12 38° SW
H-2A R/B 3.5 23:14:16 35° NNW 23:14:16 35° NNW 23:16:49 10° NNW
COSMOS 2428 4.3 23:11:28 10° WSW 23:16:28 31° WNW 23:21:32 10° N
Cosmos 1553 Rocket 4.0 23:17:12 75° W 23:17:15 75° W 23:23:29 10° N
Meteor 1-11 Rocket 4.0 23:13:53 10° N 23:18:30 63° NNW 23:18:30 63° NNW
SL-08 R/B 4.5 23:14:22 10° N 23:20:08 74° WNW 23:20:08 74° WNW
CZ-4C R/B 2.9 23:16:50 10° NNW 23:24:03 71° NE 23:24:27 69° ENE
Cosmos 1980 4.2 23:28:48 55° N 23:28:48 55° N 23:33:21 10° NNE
ATLAS 3B R/B 4.4 23:26:51 10° N 23:31:55 21° NE 23:33:55 19° ENE
SL-16 R/B 3.9 23:36:36 24° NE 23:36:36 24° NE 23:38:53 10° NNE
Terra 3.4 23:40:44 33° NW 23:40:44 33° NW 23:43:35 10° NNW
H-2A R/B 3.6 23:40:23 27° WNW 23:40:23 27° WNW 23:43:43 10° NW
